Regional Weather Roundup
Issued by NWS Glasgow, MT

Home | Current Version | Previous Version | Text Only | Print | Product List | Glossary On
Versions: 1 2 3 4 5 6 7 8 9 10 11 12 13 14 15 16 17 18 19 20 21 22 23 24 25 26 27 28 29 30 31 32 33 34 35 36 37 38 39 40 41 42 43 44 45 46 47 48 49 50
000
ASUS45 KGGW 050315
RWRGGW
HOURLY WEATHER ROUNDUP FOR NORTHEAST MONTANA
NATIONAL WEATHER SERVICE GLASGOW MONTANA
900 PM MDT MON MAY 04 2015

NOTE: "FAIR" INDICATES FEW OR NO CLOUDS BELOW 12,000 FEET WITH NO
SIGNIFICANT WEATHER AND/OR OBSTRUCTIONS TO VISISBILITY.

NORTHEAST MONTANA


CITY           SKY/WX    TMP DP  RH WIND       PRES   REMARKS
GLASGOW        CLEAR     61  40  45 SE16      29.87S
WOLF POINT     CLEAR     61  38  42 SE7       29.94R
JORDAN         NOT AVBL
WINNETT          N/A     63  43  48 N8G22       N/A
SIDNEY         CLEAR     55  32  41 SE15G22   30.02S
GLENDIVE       CLEAR     55  32  41 SE17G23   30.01R
MALTA            N/A     67  45  45 SE9G20      N/A

FORT PECK REPORTS


CITY           SKY/WX    TMP DP  RH WIND       PRES   REMARKS
FORT PECK        N/A     61  40  45 E23         N/A
THE PINES        N/A     60  40  47 SE12G20     N/A

SOUTHEAST MONTANA


CITY           SKY/WX    TMP DP  RH WIND       PRES   REMARKS
BILLINGS       PTCLDY    65  39  38 S5        29.86R
MILES CITY     CLEAR     59  39  47 SE17G29   29.92R
BAKER          CLEAR     51  32  48 SE23      30.03S
LIVINGSTON     CLEAR     57  38  48 E7        29.85R

CENTRAL MONTANA


CITY           SKY/WX    TMP DP  RH WIND       PRES   REMARKS
HAVRE          CLEAR     62  44  51 E6        29.74F
LEWISTOWN      PTCLDY    58  42  55 E9        29.86F
GREAT FALLS    CLEAR     58  21  24 W5        29.77S
CUT BANK       CLEAR     55  21  26 W10       29.79S
HELENA         CLEAR     68  31  25 S6        29.80R
BUTTE          CLOUDY    55  29  36 SE5       29.88R
BOZEMAN        CLEAR     51  37  58 E6        29.83S

WESTERN MONTANA


CITY           SKY/WX    TMP DP  RH WIND       PRES   REMARKS
MISSOULA       MOCLDY    65  34  31 NW3       29.76S
KALISPELL      NOT AVBL

NORTH DAKOTA


CITY           SKY/WX    TMP DP  RH WIND       PRES   REMARKS
WILLISTON      CLEAR     59  37  44 S16G23    30.04R
DICKINSON      CLEAR     48  32  53 S13       30.08S
MINOT          CLEAR     60  29  30 S12       30.08R
BISMARCK       PTCLDY    49  30  48 SE6       30.13R

SOUTHERN SASKATCHEWAN


CITY           SKY/WX    TMP DP  RH WIND       PRES   REMARKS
REGINA         PTCLDY    59  32  36 SE16      29.92S
MOOSE JAW      PTCLDY    59  37  44 S15       29.89R
ESTEVAN        CLEAR     59  37  44 S16       30.03R
SWIFT CURRENT  CLEAR     59  41  51 E8        29.80S



USA.gov is the U.S. government's official web portal to all federal, state and local government web resources and services.